This demonstration page uses our WeatherBlox Daily Observations layout. Learn more.

Left ArrowRight Arrow

39.51506, -84.39828

Hourly Observations for April 15, 2018

Temp ( °F °C ) Dew Point ( °F °C ) Humidity (%) Winds ( mph kmh ) Pressure ( in mb ) Visibility ( mi km ) Precip ( " mm )
12:15 am 00:15 Cloudy with Rain 53 11.5 52 11 97 97 NNE 8 13 29.85 1011 3 5 0.05 1.27
12:35 am 00:35 Cloudy with Rain 53 11.4 52 10.9 97 97 NE 6 9 29.85 1011 3 4 0.12 3.05
12:55 am 00:55 Cloudy with Rain 52 11.3 52 11 98 98 NNW 5 7 29.85 1011 2 3 0.23 5.84
1:15 am 01:15 Cloudy with Rain 53 11.7 53 11.4 98 98 Calm 29.85 1011 2 3 0.05 1.27
1:35 am 01:35 Cloudy with Rain 54 12.3 54 12.1 99 99 Calm 29.85 1011 2 3 0.11 2.79
1:55 am 01:55 Cloudy with Rain 55 12.7 55 12.5 99 99 Calm 29.83 1010 2 3 0.15 3.81
2:15 am 02:15 Cloudy with Light Rain 56 13.5 56 13.2 98 98 Calm 29.80 1009 3 5 0.02 0.51
2:35 am 02:35 Cloudy with Light Rain 60 15.5 59 15.1 97 97 SSE 7 11 29.80 1009 5 8 0.05 1.27
2:55 am 02:55 Cloudy with Light Rain 60 15.8 59 15 95 95 SE 6 9 29.77 1008 10 16 0.07 1.78
3:15 am 03:15 Cloudy with Light Rain 60 15.6 59 15 96 96 SE 7 11 29.77 1008 10 16 0.01 0.25
3:35 am 03:35 Cloudy with Light Rain 60 15.7 59 15 96 96 SE 8 13 29.77 1008 10 16 0.03 0.76
3:55 am 03:55 Cloudy with Light Rain 60 15.7 59 15 96 96 SE 8 13 29.74 1007 10 16 0.04 1.02
4:15 am 04:15 Cloudy with Light Rain 60 15.7 59 15 96 96 ESE 7 11 29.74 1007 10 16 0.01 0.25
4:35 am 04:35 Cloudy with Light Rain 60 15.7 59 14.9 95 95 ESE 6 9 29.74 1007 10 16 0.03 0.76
4:55 am 04:55 Cloudy with Rain 60 15.7 59 15 96 96 ESE 8 13 29.71 1006 7 11 0.06 1.52
5:15 am 05:15 Cloudy with Light Rain 60 15.8 59 14.9 94 94 ESE 12 19 29.71 1006 10 16 0.02 0.51
5:35 am 05:35 Cloudy with Light Rain 60 15.8 59 14.9 94 94 ESE 9 15 29.71 1006 10 16 0.03 0.76
5:55 am 05:55 Cloudy with Light Rain 60 15.8 59 14.8 94 94 SE 8 13 29.68 1005 10 16 0.04 1.02
6:15 am 06:15 Cloudy with Light Rain 61 15.9 59 14.9 94 94 SE 8 13 29.68 1005 10 16 0.00 0.00
6:35 am 06:35 Cloudy 61 15.9 59 14.8 93 93 ESE 7 11 29.68 1005 10 16 0.00 0.00
6:55 am 06:55 Cloudy 61 15.9 59 14.8 93 93 S 8 13 29.68 1005 10 16 0.00 0.00
7:15 am 07:15 Cloudy with Light Rain 61 15.9 59 14.9 94 94 S 9 15 29.65 1004 7 11 0.00 0.00
7:35 am 07:35 Cloudy with Light Rain 61 15.9 59 14.9 94 94 ESE 8 13 29.65 1004 10 16 0.00 0.00
7:55 am 07:55 Cloudy with Light Rain 61 16 59 15 94 94 SE 7 11 29.65 1004 10 16 0.01 0.25
8:15 am 08:15 Cloudy with Light Rain 61 16.1 59 15.1 94 94 SE 13 20 29.65 1004 7 11 0.01 0.25
8:35 am 08:35 Cloudy with Light Rain 61 16.1 59 15.2 94 94 SE 7 11 29.62 1003 5 8 0.02 0.51
8:55 am 08:55 Cloudy with Light Rain 61 16.3 60 15.3 94 94 SE 10 17 29.62 1003 10 16 0.03 0.76
9:15 am 09:15 Cloudy with Light Rain 62 16.6 60 15.4 93 93 SE 13 20 29.62 1003 7 11 0.00 0.00
9:35 am 09:35 Cloudy 63 17 60 15.4 90 90 SE 15 24 29.59 1002 10 16 0.01 0.25
9:55 am 09:55 Cloudy with Light Rain 63 17.2 60 15.4 89 89 SE 17 28 29.59 1002 10 16 0.01 0.25
10:15 am 10:15 Cloudy with Heavy Rain 61 15.9 57 14 89 89 W 31 50 29.62 1003 3 5 0.06 1.52
10:35 am 10:35 Cloudy with Rain 53 11.5 51 10.3 92 92 W 16 26 29.68 1005 4 6 0.19 4.83
10:55 am 10:55 Cloudy with Light Rain 53 11.4 50 10.1 92 92 WSW 12 19 29.68 1005 7 11 0.20 5.08
11:15 am 11:15 Cloudy with Light Rain 52 11.2 50 10 92 92 WNW 12 19 29.71 1006 5 8 0.00 0.00
11:35 am 11:35 Cloudy with Light Rain 52 11.2 50 10 92 92 W 8 13 29.71 1006 7 11 0.03 0.76
11:55 am 11:55 Cloudy with Light Rain 52 11.1 50 9.8 92 92 W 5 7 29.71 1006 10 16 0.04 1.02
12:15 pm 12:15 Cloudy with Rain 52 11.1 50 9.9 92 92 NNW 5 7 29.71 1006 7 11 0.03 0.76
12:35 pm 12:35 Cloudy with Heavy Rain 52 11.1 50 10 93 93 SW 3 6 29.71 1006 7 11 0.08 2.03
12:55 pm 12:55 Cloudy with Heavy Rain 52 11 50 9.8 92 92 Calm 29.68 1005 7 11 0.14 3.56
1:15 pm 13:15 Cloudy with Light Rain 52 10.9 50 9.8 93 93 Calm 29.71 1006 10 16 0.01 0.25
1:35 pm 13:35 Cloudy with Light Rain 52 11.1 49 9.5 90 90 Calm 29.68 1005 10 16 0.03 0.76
1:55 pm 13:55 Cloudy with Rain 52 11.3 50 10.1 92 92 W 3 6 29.68 1005 7 11 0.05 1.27
2:15 pm 14:15 Cloudy with Rain 52 11.2 50 9.8 91 91 WSW 3 6 29.68 1005 10 16 0.03 0.76
2:35 pm 14:35 Cloudy with Rain 52 11.1 50 10 93 93 WSW 5 7 29.71 1006 7 11 0.08 2.03
2:55 pm 14:55 Cloudy with Light Rain 53 11.5 50 10 91 91 WSW 8 13 29.68 1005 10 16 0.10 2.54
3:15 pm 15:15 Cloudy with Light Rain 53 11.5 50 10 91 91 W 7 11 29.68 1005 10 16 0.01 0.25
3:35 pm 15:35 Cloudy with Light Rain 52 11.3 49 9.6 89 89 WSW 10 17 29.68 1005 10 16 0.01 0.25
3:55 pm 15:55 Cloudy with Light Rain 52 11.2 49 9.4 89 89 WSW 8 13 29.68 1005 10 16 0.01 0.25
4:15 pm 16:15 Cloudy with Mist and Fog 50 10 46 7.9 87 87 W 20 31 29.68 1005 5 8 0.00 0.00
4:35 pm 16:35 Cloudy 48 8.9 46 7.6 92 92 W 16 26 29.68 1005 7 11 0.00 0.00
4:55 pm 16:55 Cloudy 49 9.3 45 7.3 87 87 WSW 12 19 29.71 1006 10 16 0.00 0.00
5:15 pm 17:15 Cloudy 49 9.6 46 7.5 87 87 W 12 19 29.71 1006 10 16 0.00 0.00
5:35 pm 17:35 Cloudy 50 10.1 46 7.5 84 84 W 9 15 29.68 1005 10 16 0.00 0.00
5:55 pm 17:55 Cloudy 51 10.3 45 7.1 81 81 W 13 20 29.68 1005 10 16 0.00 0.00
6:15 pm 18:15 Cloudy 51 10.3 44 6.6 78 78 W 12 19 29.68 1005 10 16 0.00 0.00
6:35 pm 18:35 Cloudy 51 10.5 44 6.9 79 79 W 7 11 29.71 1006 10 16 0.00 0.00
6:55 pm 18:55 Cloudy 51 10.8 44 6.4 74 74 WSW 8 13 29.71 1006 10 16 0.00 0.00
7:15 pm 19:15 Cloudy 51 10.6 44 6.5 76 76 W 10 17 29.71 1006 10 16 0.00 0.00
7:35 pm 19:35 Cloudy 50 9.9 41 5 72 72 WNW 9 15 29.74 1007 10 16 0.00 0.00
7:55 pm 19:55 Cloudy 50 9.8 41 4.9 72 72 W 10 17 29.71 1006 10 16 0.00 0.00
8:15 pm 20:15 Cloudy 49 9.7 40 4.4 70 70 W 12 19 29.71 1006 10 16 0.00 0.00
8:35 pm 20:35 Cloudy 49 9.4 40 4.2 70 70 W 14 22 29.71 1006 10 16 0.00 0.00
8:55 pm 20:55 Cloudy 49 9.3 40 4.4 72 72 W 10 17 29.74 1007 10 16 0.00 0.00
9:15 pm 21:15 Cloudy 48 9 39 3.9 71 71 W 10 17 29.74 1007 10 16 0.00 0.00
9:35 pm 21:35 Cloudy 48 8.7 38 3.4 70 70 W 13 20 29.74 1007 10 16 0.00 0.00
9:55 pm 21:55 Cloudy 47 8.6 38 3.5 71 71 W 10 17 29.74 1007 10 16 0.00 0.00
10:15 pm 22:15 Cloudy 47 8.4 38 3.6 72 72 W 9 15 29.74 1007 10 16 0.00 0.00
10:35 pm 22:35 Cloudy 47 8.2 38 3.6 73 73 W 21 33 29.77 1008 10 16 0.00 0.00
10:55 pm 22:55 Cloudy 46 7.6 38 3.1 73 73 W 12 19 29.77 1008 10 16 0.00 0.00
11:15 pm 23:15 Cloudy 45 7.3 38 3.4 77 77 W 9 15 29.77 1008 10 16 0.00 0.00
11:35 pm 23:35 Cloudy 45 7.1 38 3.3 77 77 W 8 13 29.77 1008 10 16 0.00 0.00
11:55 pm 23:55 Cloudy 45 7 38 3.1 76 76 W 14 22 29.77 1008 10 16 0.00 0.00

Powered by AerisWeather